Date String (YYYY-MM-DD hh:mm:ss) UTC,Instrument flags,Ambient pressure (hPa),Sample flow (lpm),Bypass flow (lpm),Sample temperature (°C),Ambient temperature (°C),ASC tube jacket temperature (°C),LED temperature (°C),Box temperature (°C),Sample RH (%),Span deviation,Mass concentration (μg/m³),Mass concentration (μg/m³),Mass concentration (μg/m³)
DateTimeUTC,F1_M11,P_M11,Q1_M11,Q2_M11,T1_M11,T2_M11,T3_M11,T4_M11,T5_M11,U1_M11,ZSPAN_M11,X0_M11,X2_M11,X1_M11
2021-09-13 19:00:00,,0827.2,4.99,0.00,29.5,27.7,00.0,38.6,31.2,26.3,0000.0,0020.02,0004.90,0003.24
2021-09-13 19:01:00,,0827.2,5.01,0.00,29.5,28.0,00.0,38.6,31.3,26.4,0000.0,0019.67,0004.88,0003.24
2021-09-13 19:02:00,,0827.2,4.99,0.00,29.6,28.2,00.0,38.6,31.4,26.1,0000.0,0019.91,0004.87,0003.22
2021-09-13 19:03:00,,0827.2,5.01,0.00,29.6,28.5,00.0,38.6,31.4,26.0,0000.0,0020.04,0004.85,0003.22
2021-09-13 19:04:00,,0827.2,4.99,0.00,29.7,28.6,00.0,38.6,31.5,26.0,0000.0,0019.05,0004.86,0003.23
2021-09-13 19:05:00,,0827.2,4.99,0.00,29.7,28.8,00.0,38.7,31.6,25.7,0000.0,0017.95,0004.84,0003.23
2021-09-13 19:06:00,,0827.2,5.00,0.00,29.8,28.9,00.0,38.7,31.7,25.1,0000.0,0017.42,0004.79,0003.23
2021-09-13 19:07:00,,0827.2,5.00,0.00,29.8,28.2,00.0,38.7,31.5,25.3,0000.0,0017.64,0004.74,0003.22
2021-09-13 19:08:00,,0827.1,5.00,0.00,29.6,26.5,00.0,38.7,31.0,25.8,0000.0,0017.97,0004.66,0003.19
2021-09-13 19:09:00,,0827.2,4.99,0.00,29.5,26.0,00.0,38.7,30.8,25.9,0000.0,0017.15,0004.62,0003.18
2021-09-13 19:10:00,,0827.2,5.00,0.00,29.4,26.4,00.0,38.7,30.9,25.8,0000.0,0017.78,0004.60,0003.17
2021-09-13 19:11:00,,0827.1,5.00,0.00,29.4,26.8,00.0,38.6,31.0,26.1,0000.0,0017.75,0004.54,0003.17
2021-09-13 19:12:00,,0827.1,5.00,0.00,29.4,27.3,00.0,38.6,31.1,25.9,0000.0,0018.67,0004.53,0003.16
2021-09-13 19:13:00,,0827.1,5.01,0.00,29.4,27.7,00.0,38.6,31.2,25.8,0000.0,0019.42,0004.53,0003.16
2021-09-13 19:14:00,,0827.1,5.00,0.00,29.5,28.0,00.0,38.6,31.3,25.4,0000.0,0020.08,0004.49,0003.14
2021-09-13 19:15:00,,0827.1,5.00,0.00,29.5,28.2,00.0,38.6,31.4,25.4,0000.0,0020.44,0004.48,0003.12
2021-09-13 19:16:00,,0827.2,5.00,0.00,29.6,28.4,00.0,38.6,31.4,25.2,0000.0,0020.21,0004.44,0003.08
2021-09-13 19:17:00,,0827.1,5.00,0.00,29.6,28.6,00.0,38.6,31.5,25.2,0000.0,0020.58,0004.41,0003.07
2021-09-13 19:18:00,,0827.0,4.99,0.00,29.7,28.8,00.0,38.6,31.6,25.1,0000.0,0020.60,0004.48,0003.09
2021-09-13 19:19:00,,0826.9,5.01,0.00,29.7,28.9,00.0,38.6,31.6,24.6,0000.0,0020.42,0004.46,0003.08
2021-09-13 19:20:00,,0826.9,5.00,0.00,29.8,28.7,00.0,38.7,31.6,24.5,0000.0,0020.23,0004.44,0003.07
2021-09-13 19:21:00,,0826.9,5.01,0.00,29.7,27.1,00.0,38.7,31.2,24.6,0000.0,0019.78,0004.42,0003.08
2021-09-13 19:22:00,,0826.9,4.99,0.00,29.5,26.0,00.0,38.7,30.9,24.9,0000.0,0019.13,0004.49,0003.10
2021-09-13 19:23:00,,0826.9,4.99,0.00,29.5,26.2,00.0,38.6,30.9,25.1,0000.0,0018.75,0004.51,0003.12
2021-09-13 19:24:00,,0826.9,5.00,0.00,29.4,26.6,00.0,38.6,31.0,25.1,0000.0,0017.54,0004.48,0003.12
2021-09-13 19:25:00,,0826.9,5.00,0.00,29.4,27.1,00.0,38.6,31.1,25.2,0000.0,0017.18,0004.46,0003.13
2021-09-13 19:26:00,,0827.0,5.00,0.00,29.4,27.5,00.0,38.5,31.2,25.0,0000.0,0017.58,0004.45,0003.15
2021-09-13 19:27:00,,0826.9,4.98,0.00,29.4,27.8,00.0,38.5,31.2,25.0,0000.0,0018.19,0004.43,0003.16
2021-09-13 19:28:00,,0826.9,5.01,0.00,29.5,28.1,00.0,38.5,31.3,25.0,0000.0,0018.08,0004.48,0003.18
2021-09-13 19:29:00,,0826.9,5.00,0.00,29.5,28.3,00.0,38.5,31.4,24.8,0000.0,0017.55,0004.39,0003.18
2021-09-13 19:30:00,,0826.9,4.99,0.00,29.6,28.5,00.0,38.6,31.4,24.9,0000.0,0016.92,0004.34,0003.19
2021-09-13 19:31:00,,0827.0,5.01,0.00,29.6,28.7,00.0,38.6,31.5,24.7,0000.0,0016.80,0004.33,0003.21
2021-09-13 19:32:00,,0827.1,5.00,0.00,29.7,28.8,00.0,38.6,31.6,24.5,0000.0,0016.30,0004.31,0003.20
2021-09-13 19:33:00,,0827.2,4.99,0.00,29.7,28.9,00.0,38.6,31.7,24.7,0000.0,0015.88,0004.27,0003.19
2021-09-13 19:34:00,,0827.1,5.01,0.00,29.8,29.0,00.0,38.6,31.7,24.4,0000.0,0016.16,0004.22,0003.19
2021-09-13 19:35:00,,0826.8,5.00,0.00,29.8,27.8,00.0,38.7,31.4,24.4,0000.0,0016.88,0004.23,0003.19
2021-09-13 19:36:00,,0826.8,5.00,0.00,29.6,26.1,00.0,38.7,30.9,24.5,0000.0,0017.04,0004.25,0003.19
2021-09-13 19:37:00,,0826.8,5.00,0.00,29.5,26.0,00.0,38.6,30.8,24.8,0000.0,0016.77,0004.24,0003.18
2021-09-13 19:38:00,,0826.8,5.01,0.00,29.4,26.4,00.0,38.6,30.9,25.2,0000.0,0016.33,0004.20,0003.18
2021-09-13 19:39:00,,0826.8,5.02,0.00,29.4,26.9,00.0,38.6,31.0,25.1,0000.0,0015.46,0004.14,0003.16
2021-09-13 19:40:00,,0826.7,5.00,0.00,29.4,27.3,00.0,38.5,31.1,24.8,0000.0,0015.49,0004.20,0003.14
2021-09-13 19:41:00,,0826.7,5.01,0.00,29.4,27.7,00.0,38.5,31.2,24.6,0000.0,0014.95,0004.21,0003.13
2021-09-13 19:42:00,,0826.7,4.99,0.00,29.5,28.0,00.0,38.5,31.3,24.5,0000.0,0014.63,0004.20,0003.09
2021-09-13 19:43:00,,0826.7,5.01,0.00,29.5,28.2,00.0,38.5,31.4,24.5,0000.0,0014.45,0004.20,0003.08
2021-09-13 19:44:00,,0826.7,5.01,0.00,29.6,28.4,00.0,38.5,31.4,24.3,0000.0,0014.03,0004.16,0003.06
2021-09-13 19:45:00,,0826.7,4.99,0.00,29.6,28.6,00.0,38.6,31.5,24.3,0000.0,0013.27,0004.13,0003.01
2021-09-13 19:46:00,,0826.7,5.01,0.00,29.7,28.8,00.0,38.6,31.6,24.3,0000.0,0012.96,0004.10,0002.99
2021-09-13 19:47:00,,0826.7,4.99,0.00,29.7,28.9,00.0,38.6,31.6,24.3,0000.0,0011.87,0004.09,0002.96
2021-09-13 19:48:00,,0826.7,5.00,0.00,29.8,28.9,00.0,38.7,31.6,24.3,0000.0,0011.16,0004.06,0002.95
2021-09-13 19:49:00,,0826.7,5.00,0.00,29.7,27.5,00.0,38.7,31.2,24.6,0000.0,0011.01,0004.05,0002.92
2021-09-13 19:50:00,,0826.7,4.99,0.00,29.6,26.0,00.0,38.6,30.9,24.7,0000.0,0011.65,0004.03,0002.90
2021-09-13 19:51:00,,0826.7,5.00,0.00,29.5,26.1,00.0,38.6,30.8,24.8,0000.0,0011.71,0003.96,0002.88
2021-09-13 19:52:00,,0826.7,5.01,0.00,29.4,26.5,00.0,38.6,30.9,24.8,0000.0,0011.55,0003.96,0002.86
2021-09-13 19:53:00,,0826.6,5.01,0.00,29.4,27.0,00.0,38.5,31.0,25.0,0000.0,0012.08,0003.97,0002.86
2021-09-13 19:54:00,,0826.6,4.98,0.00,29.4,27.4,00.0,38.5,31.1,24.9,0000.0,0011.99,0003.95,0002.84
2021-09-13 19:55:00,,0826.5,5.01,0.00,29.4,27.7,00.0,38.5,31.2,24.9,0000.0,0011.96,0003.93,0002.84
2021-09-13 19:56:00,,0826.5,4.99,0.00,29.5,28.0,00.0,38.5,31.3,25.1,0000.0,0011.50,0003.89,0002.81
2021-09-13 19:57:00,,0826.5,5.01,0.00,29.5,28.3,00.0,38.5,31.4,24.9,0000.0,0010.98,0003.90,0002.79
2021-09-13 19:58:00,,0826.5,4.99,0.00,29.6,28.5,00.0,38.5,31.4,24.8,0000.0,0010.92,0003.85,0002.76
2021-09-13 19:59:00,,0826.5,5.00,0.00,29.6,28.7,00.0,38.6,31.5,24.6,0000.0,0010.77,0003.78,0002.73
